[[{"header":{"parameterUnit":"m.s-1","parameterCategory":1,"la1":30.2992,"la2":30.254,"lo1":-89.0895,"lo2":-89.0443,"dy":0.0025,"dx":0.0025,"nx":19,"ny":19,"refTime":"2026-04-29T09:00:00:Z","depth":0,"parameterNumber":2,"parameterNumberName":"U-component_of_WINDS"},"data":[0,0,0,-3.4965,-3.4966,-3.4999,-3.4999,-3.5078,-3.5079,0,0,0,0,0,0,0,0,0,0,0,-3.4976,-3.4977,-3.4965,-3.4966,-3.4999,-3.4999,-3.5077,-3.5079,0,0,0,0,0,0,0,0,0,0,0,-3.4975,-3.4977,-3.4979,-3.4966,-3.4999,-3.4999,-3.5077,-3.5039,0,0,0,0,0,0,0,0,0,0,-3.5001,-3.5032,-3.4977,-3.4979,-3.4967,-3.4999,-3.4999,-3.5037,-3.5042,-3.5078,0,-3.5115,0,-3.5098,-3.5086,-3.5086,0,0,0,-3.495,-3.5028,-3.5018,-3.4979,-3.4967,-3.4999,-3.498,-3.5039,-3.5045,-3.5084,-3.5116,-3.5117,-3.5099,-3.5087,-3.5087,-3.5346,-3.5348,0,0,-3.4949,-3.4994,-3.5014,-3.5023,-3.5019,-3.4979,-3.4981,-3.5042,-3.5079,-3.5116,-3.5119,-3.5101,-3.5088,-3.5088,-3.5345,-3.5347,0,0,0,-3.4954,-3.4993,-3.498,-3.502,-3.5024,-3.498,-3.4983,-3.5077,-3.5069,-3.5119,-3.5102,-3.5088,-3.509,-3.5342,-3.5345,-3.5488,0,0,0,-3.4952,-3.4996,-3.498,-3.5008,-3.5023,-3.505,-3.5017,-3.5064,-3.507,-3.5101,-3.5088,-3.5091,-3.534,-3.5344,-3.5479,-3.5549,0,0,0,-3.4967,-3.4997,-3.5009,-3.5011,-3.5026,-3.5048,-3.5043,-3.5064,-3.506,-3.5087,-3.5091,-3.5339,-3.5343,-3.5471,-3.5536,-3.5633,0,0,0,-3.4996,-3.5134,-3.5012,-3.516,-3.5027,-3.5135,-3.5042,-3.512,-3.516,-3.5089,-3.534,-3.5345,-3.5469,-3.5528,-3.5625,-3.5725,-3.577,0,0,-3.5196,-3.516,-3.5243,-3.5135,-3.5277,-3.5126,-3.5289,-3.5282,-3.5243,-3.5314,-3.532,-3.5482,-3.5535,-3.5631,-3.5999,-3.6035,0,0,0,-3.5322,-3.5384,-3.5411,-3.5451,-3.5448,-3.5453,-3.5416,-3.5414,-3.5472,-3.5288,-3.5539,-3.5569,-3.5624,-3.567,-3.5701,-3.5746,-3.5367,-3.5367,-3.5366,-3.5674,-3.5616,-3.5751,-3.5697,-3.5737,-3.5697,-3.5725,-3.5715,-3.5644,-3.5705,-3.5727,-3.5958,-3.6013,-3.6036,-3.6084,-3.5772,-3.5772,-3.5773,-3.5773,-3.5965,-3.6044,-3.5946,-3.6043,-3.5981,-3.6062,-3.6029,-3.5977,-3.6044,-3.5935,-3.5981,-3.5872,-3.6077,-3.6116,-3.5783,-3.5781,-3.578,-3.5779,-3.5778,-3.6192,-3.622,-3.6214,-3.6265,-3.6312,-3.6251,-3.6321,-3.6261,-3.6205,-3.6249,-3.6268,-3.6266,-3.6259,-3.6262,-3.6262,-3.6263,-3.6264,-3.6265,-3.6265,-3.6432,-3.642,-3.6486,-3.6495,-3.6513,-3.6529,-3.649,-3.6506,-3.6509,-3.6461,-3.646,-3.6387,-3.6106,-3.604,-3.6277,-3.6275,-3.6274,-3.6272,-3.6272,-3.6757,-3.6674,-3.6776,-3.6794,-3.68,-3.6852,-3.6772,-3.6811,-3.6815,-3.6852,-3.6767,-3.6568,-3.6528,-3.6503,-3.6448,-3.6777,-3.6777,-3.6777,-3.6777,-3.6952,-3.6924,-3.7016,-3.7049,-3.7074,-3.7013,-3.7132,-3.7103,-3.706,-3.706,-3.7002,-3.6922,-3.6899,-3.6872,-3.684,-3.6787,-3.7196,-3.7196,-3.7196,-3.7151,-3.7122,-3.7236,-3.7191,-3.7191,-3.7193,-3.7304,-3.7347,-3.728,-3.7212,-3.7059,-3.7042,-3.6911,-3.6871,-3.6805,-3.6755,-3.6658,0,0]},{"header":{"parameterUnit":"m.s-1","parameterCategory":1,"la1":30.2992,"la2":30.254,"lo1":-89.0895,"lo2":-89.0443,"dy":0.0025,"dx":0.0025,"nx":19,"ny":19,"refTime":"2026-04-29T09:00:00:Z","depth":0,"parameterNumber":3,"parameterNumberName":"V-component_of_WINDS"},"data":[0,0,0,-4.0604,-4.0605,-4.0641,-4.0642,-4.07,-4.07,0,0,0,0,0,0,0,0,0,0,0,-4.0602,-4.0603,-4.0604,-4.0605,-4.0641,-4.0642,-4.07,-4.07,0,0,0,0,0,0,0,0,0,0,0,-4.0602,-4.0603,-4.0603,-4.0606,-4.0641,-4.0642,-4.0699,-4.0668,0,0,0,0,0,0,0,0,0,0,-4.063,-4.0637,-4.0602,-4.0603,-4.0606,-4.0641,-4.0642,-4.0666,-4.067,-4.0689,0,-4.0709,0,-4.0706,-4.0705,-4.0705,0,0,0,-4.0599,-4.0634,-4.0636,-4.0604,-4.0606,-4.0641,-4.0623,-4.0668,-4.0672,-4.0694,-4.071,-4.0712,-4.0707,-4.0706,-4.0706,-4.0841,-4.0842,0,0,-4.0597,-4.0613,-4.0633,-4.0639,-4.0636,-4.0622,-4.0625,-4.067,-4.0688,-4.071,-4.0713,-4.0708,-4.0706,-4.0707,-4.084,-4.0841,0,0,0,-4.0595,-4.0612,-4.0612,-4.0637,-4.0643,-4.0623,-4.0626,-4.0686,-4.0685,-4.0713,-4.0708,-4.0706,-4.0707,-4.0839,-4.0841,-4.0903,0,0,0,-4.0594,-4.0611,-4.0612,-4.0622,-4.0642,-4.0665,-4.0641,-4.0682,-4.0687,-4.0708,-4.0706,-4.0708,-4.0838,-4.084,-4.0899,-4.093,0,0,0,-4.0597,-4.0611,-4.0619,-4.0623,-4.0639,-4.0664,-4.0666,-4.0683,-4.0684,-4.0705,-4.0708,-4.0838,-4.084,-4.0896,-4.0924,-4.0971,0,0,0,-4.0604,-4.0674,-4.0621,-4.0697,-4.0639,-4.0703,-4.0665,-4.0712,-4.0737,-4.0707,-4.0838,-4.0841,-4.0895,-4.0921,-4.0967,-4.1013,-4.1034,0,0,-4.0702,-4.0687,-4.073,-4.0683,-4.0761,-4.0696,-4.0783,-4.079,-4.0777,-4.082,-4.0823,-4.0901,-4.0924,-4.097,-4.1143,-4.116,0,0,0,-4.0767,-4.0798,-4.0815,-4.0841,-4.0849,-4.0858,-4.0851,-4.0854,-4.089,-4.0803,-4.0929,-4.0943,-4.0969,-4.099,-4.1004,-4.1026,-4.0851,-4.0851,-4.0851,-4.0928,-4.0908,-4.0978,-4.0962,-4.0988,-4.098,-4.0998,-4.1,-4.0972,-4.1002,-4.1015,-4.1122,-4.1148,-4.1158,-4.1181,-4.1037,-4.1037,-4.1037,-4.1038,-4.1069,-4.111,-4.1071,-4.1126,-4.1104,-4.1148,-4.1143,-4.1121,-4.116,-4.1111,-4.1133,-4.1082,-4.1177,-4.1196,-4.1042,-4.1041,-4.1041,-4.104,-4.104,-4.1173,-4.1189,-4.1192,-4.1226,-4.1255,-4.1236,-4.1274,-4.1252,-4.1232,-4.1254,-4.1265,-4.1264,-4.126,-4.126,-4.1261,-4.1261,-4.1261,-4.1262,-4.1262,-4.128,-4.128,-4.1316,-4.133,-4.1344,-4.1358,-4.135,-4.1362,-4.137,-4.1351,-4.1351,-4.132,-4.119,-4.1158,-4.1268,-4.1267,-4.1266,-4.1265,-4.1265,-4.1431,-4.1393,-4.1448,-4.1462,-4.1476,-4.1506,-4.1477,-4.1504,-4.151,-4.153,-4.1494,-4.1402,-4.1384,-4.1373,-4.1346,-4.1498,-4.1498,-4.1498,-4.1498,-4.1519,-4.1508,-4.1559,-4.1582,-4.1601,-4.1581,-4.1643,-4.1637,-4.1625,-4.1628,-4.1603,-4.1565,-4.1555,-4.1544,-4.1529,-4.1503,-4.1692,-4.1692,-4.1692,-4.161,-4.16,-4.1658,-4.1646,-4.1656,-4.1664,-4.1722,-4.1749,-4.1727,-4.1699,-4.163,-4.1621,-4.1561,-4.1542,-4.1514,-4.1491,-4.1444,0,0]}]]